"startDT [UTC]","vpos","CH4 [ppm]","stdev(CH4) [ppm]","CO2 [ppm]","stdev(CO2) [ppm]","H2O_reported [%]","stdev(H2O_reported)","CavityPressure [torr]","CavityTemp [C]","OutletValve","CH4_dry [ppm]","CO2_dry [ppm]","DasTemp [C]","EtalonTemp [C]","WarmBoxTemp [C]","MPVPosition","T_ECpre [C]","T_EC1 [C]","T_EC2 [C]","p_inlet [hPa]","p_in [hPa]","p_out [hPa]","T_inlet [C]","RH_inlet [%]","dwpt_inlet [C]","T_vent [C]","RH_vent [%]","dwpt_vent [C]","flow_vent [l min-1]","flow_inlet [l min-1]","dwpt_sample [C]","T_room [C]"
2016-08-17 00:00:00,0.0,1.90609,0.00048,386.967,0.123,0.7221,0.0067,140.000,45.000,32022.02547,1.91992,390.405,39.501,45.068,45.000,0.00,0.09,-272.77,-272.84,-12,537,-953,22.4,20.7,-1.2,22.7,20.8,-0.9,5.73,1.69,2.0,29.3
2016-08-17 00:01:00,0.0,1.90549,0.00033,387.079,0.166,0.7225,0.0081,139.999,45.000,32024.75084,1.91937,390.516,39.512,45.068,45.000,0.00,0.09,-272.79,-272.84,-10,537,-953,22.4,20.7,-1.2,22.7,20.9,-0.9,5.73,1.95,2.0,29.3
2016-08-17 00:02:00,0.0,1.90555,0.00048,387.268,0.067,0.7152,0.0063,139.997,45.000,32024.57559,1.91926,390.674,39.503,45.068,45.000,0.00,0.09,-272.78,-272.84,-12,537,-953,22.5,20.5,-1.3,22.7,20.7,-1.0,5.73,1.64,2.0,29.4
2016-08-17 00:03:00,0.0,1.90524,0.00036,387.074,0.116,0.7313,0.0088,140.001,45.000,32027.69504,1.91928,390.556,39.502,45.068,45.000,0.00,0.09,-272.77,-272.84,-10,537,-953,22.5,20.9,-1.0,22.7,20.9,-0.8,5.73,1.97,2.0,29.4
2016-08-17 00:04:00,0.0,1.90535,0.00037,387.160,0.064,0.7237,0.0038,140.003,45.000,32027.69534,1.91922,390.613,39.499,45.068,45.000,0.00,0.09,-272.78,-272.84,-12,537,-953,22.6,20.7,-1.1,22.7,20.9,-0.8,5.73,1.65,2.0,29.4
2016-08-17 00:05:00,0.0,1.90536,0.00048,386.957,0.077,0.7367,0.0033,140.001,45.000,32027.71939,1.91949,390.464,39.477,45.068,45.000,0.00,0.09,-272.78,-272.85,-10,537,-953,22.6,21.1,-0.8,22.7,21.1,-0.7,5.73,1.94,2.0,29.4
2016-08-17 00:06:00,0.0,1.90566,0.00046,387.043,0.141,0.7371,0.0077,140.001,45.000,32028.16031,1.91979,390.550,39.441,45.069,45.000,0.00,0.09,-272.77,-272.83,-12,537,-953,22.6,21.0,-0.9,22.7,21.2,-0.6,5.73,1.70,2.0,29.4
2016-08-17 00:07:00,0.0,1.90588,0.00041,387.246,0.107,0.7193,0.0044,139.999,45.000,32027.09285,1.91969,390.671,39.428,45.069,45.001,0.00,0.09,-272.78,-272.84,-10,537,-953,22.6,20.5,-1.2,22.7,20.8,-0.9,5.73,1.86,2.0,29.4
2016-08-17 00:08:00,0.0,1.90614,0.00033,387.271,0.124,0.7141,0.0047,140.000,45.000,32025.52591,1.91983,390.674,39.396,45.069,45.001,0.00,0.09,-272.78,-272.85,-12,537,-953,22.6,20.4,-1.3,22.8,20.5,-1.0,5.73,1.80,2.0,29.4
2016-08-17 00:09:00,0.0,1.90565,0.00056,386.738,0.219,0.7389,0.0104,139.999,45.000,32025.48290,1.91984,390.263,39.392,45.069,45.001,0.00,0.09,-272.77,-272.84,-10,537,-953,22.6,21.1,-0.8,22.8,20.9,-0.7,5.73,1.77,2.0,29.4
2016-08-17 00:10:00,0.0,1.90551,0.00040,387.048,0.387,0.7297,0.0217,140.000,45.000,32026.18304,1.91952,390.514,39.398,45.069,45.001,0.00,0.09,-272.78,-272.83,-12,537,-953,22.6,20.7,-1.1,22.8,21.2,-0.6,5.73,1.88,2.0,29.4
2016-08-17 00:11:00,0.0,1.90601,0.00035,387.413,0.143,0.7030,0.0051,139.999,45.000,32026.47063,1.91949,390.768,39.419,45.069,45.001,0.00,0.09,-272.78,-272.85,-10,537,-953,22.6,20.0,-1.5,22.8,20.3,-1.2,5.73,1.68,2.0,29.4
2016-08-17 00:12:00,0.0,1.90592,0.00040,386.846,0.112,0.7294,0.0064,139.999,45.000,32024.85809,1.91991,390.319,39.433,45.069,45.000,0.00,0.09,-272.79,-272.84,-12,537,-953,22.6,20.7,-1.0,22.8,20.7,-0.9,5.73,1.95,2.0,29.4
2016-08-17 00:13:00,0.0,1.90621,0.00057,386.981,0.184,0.7210,0.0067,140.000,45.000,32025.06341,1.91999,390.415,39.433,45.068,45.000,0.00,0.09,-272.77,-272.83,-10,537,-953,22.6,20.5,-1.2,22.8,20.7,-0.9,5.73,1.63,2.0,29.4
2016-08-17 00:14:00,0.0,1.90611,0.00036,387.179,0.216,0.7146,0.0118,139.996,45.000,32024.76851,1.91986,390.574,39.437,45.068,45.000,0.00,0.09,-272.78,-272.84,-12,537,-953,22.6,20.3,-1.4,22.8,20.6,-1.0,5.73,1.96,2.0,29.4
2016-08-17 00:15:00,0.0,1.90624,0.00030,387.283,0.064,0.7047,0.0020,140.004,45.000,32026.32335,1.91974,390.640,39.424,45.068,45.000,0.00,0.09,-272.78,-272.84,-10,537,-953,22.6,20.0,-1.5,22.8,20.2,-1.2,5.73,1.66,2.0,29.4
2016-08-17 00:16:00,0.0,1.90599,0.00038,387.134,0.072,0.7125,0.0028,140.001,45.000,32026.38957,1.91968,390.525,39.424,45.068,45.000,0.00,0.09,-272.77,-272.84,-12,537,-953,22.6,20.2,-1.4,22.8,20.3,-1.1,5.73,1.91,2.0,29.4
2016-08-17 00:17:00,0.0,1.90628,0.00038,386.937,0.237,0.7154,0.0071,139.997,45.000,32024.41950,1.91997,390.346,39.428,45.068,45.000,0.00,0.09,-272.78,-272.84,-10,537,-953,22.6,20.3,-1.3,22.8,20.4,-1.1,5.73,1.74,2.0,29.4
2016-08-17 00:18:00,0.0,1.90642,0.00044,387.239,0.104,0.7072,0.0076,139.998,45.000,32023.33868,1.91996,390.602,39.431,45.068,45.000,0.00,0.09,-272.78,-272.85,-12,537,-953,22.6,20.1,-1.5,22.8,20.4,-1.1,5.73,1.81,2.0,29.4
2016-08-17 00:19:00,0.0,1.90657,0.00029,387.065,0.128,0.7051,0.0025,139.995,45.000,32022.59223,1.92013,390.430,39.405,45.068,45.000,0.00,0.09,-272.78,-272.84,-10,537,-953,22.6,20.0,-1.5,22.8,20.2,-1.2,5.73,1.85,2.0,29.4
2016-08-17 00:20:00,0.0,1.90625,0.00032,387.164,0.154,0.7041,0.0050,139.997,45.000,32025.72647,1.91974,390.508,39.385,45.068,45.000,0.00,0.09,-272.77,-272.84,-12,537,-953,22.6,20.0,-1.5,22.8,20.2,-1.2,5.73,1.70,2.0,29.4
2016-08-17 00:21:00,0.0,1.90628,0.00032,386.811,0.195,0.7123,0.0076,140.001,45.000,32026.74203,1.91993,390.203,39.377,45.069,45.000,0.00,0.09,-272.79,-272.84,-10,537,-953,22.6,20.2,-1.4,22.8,20.2,-1.2,5.73,1.92,2.0,29.4
2016-08-17 00:22:00,0.0,1.90591,0.00049,386.377,0.412,0.7215,0.0090,140.000,44.999,32023.00212,1.91976,389.821,39.375,45.069,45.000,0.00,0.09,-272.78,-272.85,-12,537,-952,22.6,20.5,-1.1,22.8,20.5,-1.0,5.73,1.64,2.0,29.3
2016-08-17 00:23:00,0.0,1.90648,0.00065,386.813,0.423,0.7166,0.0129,139.998,44.999,32014.67625,1.92020,390.202,39.375,45.067,44.998,0.00,0.09,-272.78,-272.83,-11,537,-952,22.7,20.3,-1.3,22.8,20.6,-0.9,5.73,1.96,2.0,29.4
2016-08-17 00:24:00,0.0,1.90671,0.00033,386.976,0.087,0.7086,0.0032,140.001,44.998,32011.35656,1.92033,390.353,39.372,45.066,44.997,0.00,0.09,-272.78,-272.84,-12,537,-952,22.7,20.1,-1.4,22.8,20.3,-1.1,5.73,1.63,2.0,29.4
2016-08-17 00:25:00,0.0,1.90683,0.00030,386.922,0.201,0.7095,0.0035,139.999,44.997,32005.75589,1.92043,390.292,39.375,45.065,44.997,0.00,0.09,-272.79,-272.85,-11,537,-952,22.7,20.1,-1.4,22.8,20.3,-1.1,5.73,1.95,2.0,29.4
2016-08-17 00:26:00,0.0,1.90661,0.00039,387.129,0.055,0.7043,0.0024,139.997,44.997,32000.76692,1.92012,390.482,39.358,45.065,44.997,0.00,0.09,-272.78,-272.83,-12,537,-952,22.6,20.0,-1.5,22.8,20.1,-1.2,5.73,1.69,2.2,29.4
2016-08-17 00:27:00,0.0,1.90631,0.00039,386.910,0.124,0.7135,0.0042,139.999,44.998,31995.91039,1.92001,390.304,39.315,45.066,44.998,0.00,0.09,-272.77,-272.83,-11,537,-952,22.6,20.3,-1.3,22.8,20.3,-1.1,5.73,1.87,2.6,29.4
2016-08-17 00:28:00,0.0,1.90681,0.00050,387.120,0.064,0.7067,0.0021,139.998,44.998,31990.28227,1.92037,390.483,39.296,45.067,44.999,0.00,0.09,-272.79,-272.84,-12,537,-952,22.6,20.1,-1.5,22.8,20.3,-1.2,5.73,1.76,2.5,29.4
2016-08-17 00:29:00,0.0,1.90661,0.00039,386.963,0.162,0.7093,0.0032,140.002,44.998,31987.46568,1.92022,390.346,39.250,45.067,44.999,0.00,0.33,-270.92,-271.16,-11,537,-952,22.5,20.2,-1.4,22.8,20.2,-1.2,5.42,1.86,-4.4,29.4
2016-08-17 00:30:00,0.0,1.90686,0.00044,386.702,0.087,0.7205,0.0023,139.999,44.999,31982.56753,1.92066,390.124,39.226,45.068,45.000,0.00,0.09,-272.77,-272.84,-12,537,-952,22.5,20.6,-1.2,22.8,20.5,-1.0,5.73,1.87,2.2,29.3
2016-08-17 00:31:00,0.0,1.90734,0.00049,386.900,0.083,0.7163,0.0024,139.998,44.999,31977.84515,1.92109,390.311,39.189,45.068,45.000,0.00,0.09,-272.77,-272.85,-11,537,-952,22.4,20.5,-1.3,22.7,20.5,-1.0,5.73,1.70,2.0,29.3
2016-08-17 00:32:00,0.0,1.90668,0.00051,386.492,0.157,0.7274,0.0070,139.999,45.000,31975.79179,1.92065,389.957,39.184,45.069,45.000,0.00,0.09,-272.79,-272.84,-11,537,-952,22.4,20.9,-1.0,22.7,20.8,-0.9,5.73,1.90,1.9,29.3
2016-08-17 00:33:00,0.0,1.90696,0.00062,386.787,0.252,0.7232,0.0094,140.000,45.000,31972.57749,1.92082,390.219,39.142,45.068,45.000,0.00,0.09,-272.78,-272.84,-12,537,-951,22.4,20.8,-1.2,22.7,20.9,-0.8,5.73,1.66,1.8,29.3
2016-08-17 00:34:00,0.0,1.90714,0.00036,386.790,0.094,0.7186,0.0031,139.999,45.000,31970.78959,1.92093,390.215,39.098,45.069,45.000,0.00,0.09,-272.79,-272.84,-11,537,-952,22.3,20.7,-1.2,22.6,20.7,-1.0,5.73,1.94,1.7,29.3
2016-08-17 00:35:00,0.0,1.90732,0.00037,386.737,0.114,0.7241,0.0027,140.000,45.000,31967.54203,1.92124,390.177,39.057,45.069,45.000,0.00,0.09,-272.78,-272.85,-12,537,-952,22.3,20.9,-1.2,22.7,20.8,-0.9,5.73,1.63,1.6,29.3
2016-08-17 00:36:00,0.0,1.90578,0.00049,387.104,0.228,0.7019,0.0155,140.001,45.000,31965.21953,1.91932,390.441,39.003,45.069,45.000,0.00,0.09,-272.79,-272.84,-11,537,-951,22.3,20.2,-1.6,22.6,20.5,-1.1,5.73,1.94,1.6,29.3
2016-08-17 00:37:00,0.0,1.90608,0.00041,386.600,0.221,0.7104,0.0094,139.999,45.000,31963.51734,1.91966,389.981,38.977,45.069,45.000,0.00,0.09,-272.78,-272.83,-13,537,-951,22.3,20.5,-1.4,22.7,20.3,-1.3,5.73,1.61,1.5,29.3
2016-08-17 00:38:00,0.0,1.90553,0.00069,387.053,0.241,0.6932,0.0135,139.998,45.000,31960.53877,1.91883,390.348,38.936,45.069,45.000,0.00,0.09,-272.79,-272.84,-11,537,-951,22.4,20.0,-1.7,22.7,20.2,-1.3,5.73,1.95,1.4,29.3
2016-08-17 00:39:00,0.0,1.90565,0.00058,387.051,0.167,0.6959,0.0139,139.998,45.000,31960.07032,1.91902,390.359,38.891,45.069,45.000,0.00,0.09,-272.78,-272.84,-13,537,-951,22.4,20.0,-1.6,22.6,19.9,-1.5,5.73,1.61,1.3,29.3
2016-08-17 00:40:00,0.0,1.90529,0.00051,387.235,0.097,0.6898,0.0042,139.999,45.000,31957.94316,1.91850,390.524,38.875,45.069,45.000,0.00,0.09,-272.78,-272.83,-11,537,-951,22.4,19.9,-1.7,22.7,20.0,-1.4,5.73,1.95,1.3,29.2
2016-08-17 00:41:00,0.0,1.90559,0.00038,387.486,0.191,0.6735,0.0113,139.997,45.000,31957.59576,1.91848,390.683,38.876,45.069,45.000,0.00,0.09,-272.78,-272.84,-12,537,-951,22.4,19.3,-2.1,22.7,19.6,-1.7,5.73,1.61,1.2,29.2
2016-08-17 00:42:00,0.0,1.90559,0.00051,387.214,0.244,0.6819,0.0114,140.000,45.000,31956.31300,1.91861,390.468,38.913,45.069,45.000,0.00,0.09,-272.79,-272.84,-11,537,-951,22.4,19.7,-1.9,22.7,19.5,-1.8,5.73,1.96,1.2,29.2
2016-08-17 00:43:00,0.0,1.90616,0.00082,386.635,0.190,0.7242,0.0101,140.002,45.000,31956.49950,1.92004,390.080,38.937,45.068,45.000,0.00,0.09,-272.77,-272.84,-11,537,-951,22.4,20.9,-1.1,22.7,20.5,-1.1,5.73,1.63,1.2,29.2
2016-08-17 00:44:00,0.0,1.90607,0.00055,386.713,0.211,0.7185,0.0098,139.999,45.000,31955.19946,1.91991,390.128,38.947,45.068,44.999,0.00,0.09,-272.78,-272.84,-12,537,-951,22.5,20.7,-1.2,22.7,20.7,-1.0,5.73,1.95,1.2,29.2
2016-08-17 00:45:00,0.0,1.90485,0.00048,386.734,0.269,0.7164,0.0130,139.999,45.000,31954.73435,1.91859,390.136,38.977,45.068,44.999,0.00,0.09,-272.78,-272.85,-11,537,-951,22.4,20.6,-1.2,22.7,20.6,-1.0,5.73,1.64,1.2,29.3
2016-08-17 00:46:00,0.0,1.90505,0.00038,387.179,0.143,0.6928,0.0080,140.001,45.001,31955.84241,1.91835,390.473,38.990,45.068,44.999,0.00,0.09,-272.78,-272.84,-12,537,-951,22.5,19.9,-1.7,22.7,20.1,-1.3,5.73,1.95,1.2,29.2
2016-08-17 00:47:00,0.0,1.90526,0.00027,387.360,0.112,0.6777,0.0072,140.003,45.000,31956.43476,1.91822,390.584,38.955,45.068,44.999,0.00,0.09,-272.78,-272.84,-11,537,-951,22.5,19.4,-2.0,22.7,19.7,-1.6,5.73,1.68,1.2,29.2
2016-08-17 00:48:00,0.0,1.90570,0.00040,387.462,0.066,0.6678,0.0027,140.000,45.000,31957.33815,1.91849,390.642,38.939,45.068,44.999,0.00,0.09,-272.78,-272.84,-12,537,-951,22.5,19.1,-2.2,22.7,19.3,-1.9,5.73,1.93,1.1,29.3
2016-08-17 00:49:00,0.0,1.90529,0.00027,386.949,0.273,0.6854,0.0100,139.998,45.000,31957.36666,1.91842,390.210,38.931,45.068,45.000,0.00,0.09,-272.79,-272.84,-10,537,-951,22.5,19.6,-1.8,22.7,19.5,-1.8,5.73,1.72,1.2,29.2
2016-08-17 00:50:00,0.0,1.90530,0.00040,386.941,0.314,0.6867,0.0096,139.999,45.000,31957.00986,1.91846,390.199,38.897,45.068,45.000,0.00,0.09,-272.77,-272.84,-12,537,-951,22.5,19.7,-1.8,22.7,19.7,-1.6,5.73,1.89,1.1,29.2
2016-08-17 00:51:00,0.0,1.90582,0.00035,387.285,0.235,0.6713,0.0078,140.002,45.000,31956.25193,1.91864,390.480,38.883,45.069,45.000,0.00,0.09,-272.78,-272.84,-10,537,-951,22.5,19.2,-2.1,22.7,19.4,-1.8,5.73,1.76,1.2,29.2
2016-08-17 00:52:00,0.0,1.90575,0.00043,387.229,0.248,0.6708,0.0077,139.999,45.000,31956.37591,1.91862,390.416,38.879,45.069,45.000,0.00,0.09,-272.78,-272.85,-12,537,-951,22.5,19.2,-2.1,22.8,19.3,-1.8,5.73,1.84,1.2,29.2
2016-08-17 00:53:00,0.0,1.90580,0.00037,387.329,0.077,0.6761,0.0072,140.001,45.000,31957.64280,1.91875,390.547,38.897,45.069,45.000,0.00,0.09,-272.78,-272.84,-11,537,-951,22.5,19.4,-2.0,22.7,19.3,-1.9,5.73,1.82,1.2,29.3
2016-08-17 00:54:00,0.0,1.90577,0.00047,387.109,0.138,0.6951,0.0131,139.998,45.000,31958.29998,1.91905,390.418,38.911,45.069,45.000,0.00,0.09,-272.78,-272.84,-12,537,-951,22.5,20.0,-1.6,22.7,19.7,-1.6,5.73,1.77,1.2,29.3
2016-08-17 00:55:00,0.0,1.90583,0.00051,386.914,0.066,0.7175,0.0041,139.998,45.000,31960.10041,1.91963,390.330,38.931,45.069,45.000,0.00,0.09,-272.79,-272.84,-11,537,-951,22.5,20.6,-1.2,22.8,20.4,-1.1,5.73,1.85,1.2,29.2
2016-08-17 00:56:00,0.0,1.90552,0.00038,386.954,0.138,0.7126,0.0082,140.000,45.000,31960.88202,1.91914,390.342,38.945,45.069,45.000,0.00,0.09,-272.78,-272.85,-11,537,-951,22.5,20.4,-1.3,22.8,20.5,-1.1,5.73,1.72,1.2,29.3
2016-08-17 00:57:00,0.0,1.90590,0.00045,386.923,0.148,0.7133,0.0064,139.999,45.000,31960.84758,1.91959,390.322,38.981,45.068,45.000,0.00,0.09,-272.78,-272.84,-11,537,-951,22.5,20.5,-1.3,22.8,20.4,-1.1,5.73,1.90,1.2,29.2
2016-08-17 00:58:00,0.0,1.90595,0.00037,386.875,0.228,0.7157,0.0119,140.002,45.000,31960.97759,1.91967,390.276,38.997,45.068,44.999,0.00,0.09,-272.78,-272.84,-11,537,-951,22.5,20.4,-1.3,22.7,20.6,-1.0,5.73,1.68,1.2,29.3
2016-08-17 00:59:00,0.0,1.90614,0.00036,387.167,0.121,0.6970,0.0044,139.998,45.000,31961.28609,1.91951,390.489,39.000,45.068,44.999,0.00,0.09,-272.79,-272.84,-12,537,-951,22.5,20.0,-1.6,22.8,20.1,-1.3,5.73,1.94,1.2,29.3
2016-08-17 01:00:00,0.0,1.90583,0.00030,387.000,0.209,0.7057,0.0056,140.001,45.000,31963.04043,1.91934,390.351,39.001,45.068,44.999,0.00,0.09,-272.77,-272.84,-11,537,-951,22.5,20.2,-1.5,22.7,20.2,-1.2,5.73,1.64,1.2,29.2
2016-08-17 01:01:00,0.0,1.90595,0.00052,386.970,0.212,0.7061,0.0079,140.001,45.000,31964.35870,1.91950,390.333,39.014,45.068,45.000,0.00,0.09,-272.79,-272.84,-12,537,-951,22.5,20.2,-1.5,22.7,20.2,-1.3,5.73,1.95,1.2,29.2
2016-08-17 01:02:00,0.0,1.90613,0.00038,386.777,0.165,0.7159,0.0056,140.000,45.000,31963.89992,1.91988,390.179,39.029,45.068,45.000,0.00,0.09,-272.79,-272.84,-10,537,-951,22.5,20.5,-1.3,22.7,20.5,-1.1,5.73,1.63,1.2,29.3
2016-08-17 01:03:00,0.0,1.90577,0.00037,387.192,0.041,0.6925,0.0025,139.998,45.000,31964.02730,1.91902,390.488,39.002,45.068,45.000,0.00,0.09,-272.78,-272.84,-12,537,-951,22.5,19.9,-1.7,22.7,20.1,-1.4,5.73,1.95,1.2,29.2
2016-08-17 01:04:00,0.0,1.90599,0.00034,386.938,0.306,0.7025,0.0068,139.998,45.000,31962.32598,1.91948,390.290,39.001,45.069,45.000,0.00,0.09,-272.77,-272.84,-10,537,-951,22.5,20.2,-1.5,22.7,20.0,-1.4,5.73,1.64,1.2,29.2
2016-08-17 01:05:00,0.0,1.90575,0.00042,386.971,0.196,0.7077,0.0095,140.003,45.000,31963.93065,1.91931,390.330,39.003,45.069,45.000,0.00,0.09,-272.79,-272.84,-12,537,-951,22.5,20.2,-1.5,22.7,20.3,-1.2,5.73,1.93,1.2,29.2
2016-08-17 01:06:00,0.0,1.90569,0.00041,387.130,0.146,0.6948,0.0070,140.001,45.000,31964.72575,1.91900,390.438,39.011,45.069,45.000,0.00,0.09,-272.78,-272.84,-10,537,-951,22.5,19.9,-1.7,22.7,20.0,-1.4,5.73,1.68,1.2,29.2
2016-08-17 01:07:00,0.0,1.90557,0.00030,386.819,0.136,0.7086,0.0060,140.002,45.000,31965.64638,1.91915,390.186,39.054,45.069,45.000,0.00,0.09,-272.77,-272.83,-12,537,-951,22.5,20.3,-1.4,22.7,20.2,-1.3,5.73,1.90,1.2,29.2
2016-08-17 01:08:00,0.0,1.90590,0.00039,386.996,0.066,0.6965,0.0042,140.001,45.000,31965.89636,1.91925,390.309,39.064,45.069,45.000,0.00,0.09,-272.78,-272.84,-10,537,-951,22.5,20.0,-1.7,22.7,20.1,-1.3,5.73,1.77,1.2,29.2
2016-08-17 01:09:00,0.0,1.90601,0.00036,386.839,0.217,0.6991,0.0071,139.997,45.000,31963.91769,1.91943,390.168,39.087,45.069,45.000,0.00,0.09,-272.78,-272.85,-12,537,-951,22.5,20.0,-1.6,22.7,20.0,-1.4,5.73,1.84,1.2,29.2
2016-08-17 01:10:00,0.0,1.90501,0.00053,386.638,0.423,0.7076,0.0134,139.999,45.000,31965.71324,1.91859,389.994,39.093,45.068,45.000,0.00,0.09,-272.77,-272.84,-10,537,-951,22.5,20.2,-1.5,22.7,20.3,-1.2,5.73,1.83,1.2,29.2
2016-08-17 01:11:00,0.0,1.90504,0.00043,387.076,0.068,0.6905,0.0027,139.998,45.000,31966.37449,1.91829,390.364,39.120,45.068,45.000,0.00,0.09,-272.77,-272.84,-12,537,-951,22.4,19.8,-1.8,22.7,19.9,-1.5,5.73,1.75,1.2,29.2
2016-08-17 01:12:00,0.0,1.90469,0.00042,387.106,0.167,0.6884,0.0055,140.001,45.000,31966.88753,1.91785,390.376,39.119,45.068,45.000,0.00,0.09,-272.79,-272.85,-11,537,-951,22.4,19.7,-1.8,22.7,19.8,-1.5,5.73,1.90,1.3,29.2
2016-08-17 01:13:00,0.0,1.90488,0.00040,387.225,0.160,0.6840,0.0083,140.000,45.000,31965.92615,1.91798,390.481,39.080,45.068,45.000,0.00,0.09,-272.78,-272.84,-12,537,-951,22.5,19.6,-1.9,22.7,19.7,-1.6,5.73,1.70,1.3,29.2
2016-08-17 01:14:00,0.0,1.90488,0.00038,386.915,0.225,0.6985,0.0089,139.999,45.000,31964.22088,1.91828,390.234,39.063,45.068,45.000,0.00,0.09,-272.78,-272.83,-11,537,-951,22.5,19.9,-1.6,22.7,19.9,-1.5,5.73,1.97,1.2,29.2
2016-08-17 01:15:00,0.0,1.90547,0.00032,387.372,0.108,0.6798,0.0046,140.000,45.000,31964.48163,1.91847,390.608,39.044,45.069,45.000,0.00,0.09,-272.78,-272.85,-12,537,-951,22.5,19.5,-2.0,22.7,19.7,-1.6,5.73,1.65,1.3,29.2
2016-08-17 01:16:00,0.0,1.90499,0.00051,387.131,0.227,0.6882,0.0082,139.999,45.000,31965.80173,1.91817,390.409,39.006,45.069,45.001,0.00,0.09,-272.79,-272.84,-11,537,-951,22.5,19.7,-1.8,22.7,19.7,-1.6,5.73,1.99,1.3,29.2
2016-08-17 01:17:00,0.0,1.90479,0.00048,386.882,0.154,0.7028,0.0073,140.000,45.000,31964.38189,1.91825,390.220,39.006,45.069,45.001,0.00,0.09,-272.77,-272.83,-11,537,-951,22.5,20.1,-1.5,22.7,20.0,-1.4,5.73,1.66,1.3,29.2
2016-08-17 01:18:00,0.0,1.90507,0.00029,387.141,0.168,0.6915,0.0066,140.002,45.000,31966.84252,1.91832,390.433,39.060,45.070,45.001,0.00,0.09,-272.78,-272.84,-12,537,-951,22.5,19.7,-1.7,22.7,19.9,-1.4,5.73,2.00,1.3,29.2
2016-08-17 01:19:00,0.0,1.90508,0.00042,387.074,0.194,0.6924,0.0080,140.001,45.000,31964.43094,1.91833,390.364,39.107,45.069,45.000,0.00,0.09,-272.78,-272.84,-11,537,-951,22.5,19.7,-1.8,22.8,19.8,-1.5,5.73,1.67,1.3,29.3
2016-08-17 01:20:00,0.0,1.90523,0.00034,387.308,0.047,0.6835,0.0026,140.000,45.000,31965.21842,1.91832,390.560,39.127,45.069,45.000,0.00,0.09,-272.77,-272.83,-12,537,-951,22.6,19.5,-1.9,22.8,19.6,-1.6,5.73,1.95,1.3,29.3
2016-08-17 01:21:00,0.0,1.90540,0.00029,387.269,0.040,0.6886,0.0026,140.002,45.000,31965.51013,1.91858,390.548,39.158,45.069,45.000,0.00,0.09,-272.77,-272.83,-11,537,-951,22.6,19.6,-1.8,22.8,19.7,-1.6,5.73,1.70,1.3,29.3
2016-08-17 01:22:00,0.0,1.90499,0.00044,387.195,0.107,0.6895,0.0022,139.999,45.000,31968.99520,1.91821,390.478,39.190,45.068,44.999,0.00,0.09,-272.78,-272.84,-12,537,-951,22.6,19.6,-1.8,22.8,19.7,-1.6,5.73,1.87,1.3,29.3
2016-08-17 01:23:00,0.0,1.90492,0.00045,387.015,0.131,0.6933,0.0028,140.001,45.000,31970.96950,1.91819,390.316,39.199,45.068,44.999,0.00,0.09,-272.78,-272.84,-11,537,-951,22.6,19.7,-1.7,22.8,19.8,-1.5,5.73,1.77,1.3,29.3
2016-08-17 01:24:00,0.0,1.90459,0.00034,386.838,0.266,0.7002,0.0061,140.001,45.000,31973.55305,1.91802,390.167,39.188,45.068,44.999,0.00,0.09,-272.77,-272.84,-12,537,-951,22.6,19.9,-1.6,22.8,20.0,-1.4,5.73,1.78,1.3,29.3
2016-08-17 01:25:00,0.0,1.90487,0.00047,386.987,0.088,0.6982,0.0031,139.997,45.000,31970.21105,1.91826,390.304,39.189,45.068,44.999,0.00,0.09,-272.78,-272.84,-10,537,-951,22.6,19.8,-1.6,22.8,19.9,-1.4,5.73,1.84,1.3,29.3
2016-08-17 01:26:00,0.0,1.90485,0.00038,386.953,0.110,0.7011,0.0037,140.001,45.000,31971.34497,1.91828,390.291,39.200,45.068,45.000,0.00,0.09,-272.77,-272.85,-12,537,-951,22.6,19.9,-1.5,22.8,20.0,-1.3,5.73,1.69,1.3,29.3
2016-08-17 01:27:00,0.0,1.90444,0.00045,386.486,0.279,0.7158,0.0069,139.997,45.000,31971.14008,1.91814,389.894,39.224,45.068,45.000,0.00,0.09,-272.78,-272.84,-10,537,-951,22.6,20.4,-1.2,22.8,20.2,-1.2,5.73,1.92,1.3,29.3
2016-08-17 01:28:00,0.0,1.90477,0.00036,386.557,0.260,0.7232,0.0059,139.998,45.000,31970.57153,1.91865,389.992,39.241,45.068,45.000,0.00,0.09,-272.77,-272.84,-12,537,-951,22.6,20.6,-1.1,22.8,20.6,-0.9,5.73,1.64,1.3,29.3
2016-08-17 01:29:00,0.0,1.90466,0.00037,386.924,0.294,0.7151,0.0149,139.999,45.000,31970.07666,1.91836,390.324,39.254,45.068,45.000,0.00,0.09,-272.79,-272.84,-10,537,-951,22.6,20.3,-1.3,22.8,20.5,-1.0,5.73,1.98,1.4,29.3
2016-08-17 01:30:00,0.0,1.90475,0.00028,386.965,0.133,0.7099,0.0053,140.003,45.000,31973.71235,1.91835,390.348,39.255,45.068,45.000,0.00,0.09,-272.78,-272.84,-12,537,-951,22.6,20.2,-1.4,22.8,20.3,-1.1,5.73,1.64,1.3,29.3
2016-08-17 01:31:00,0.0,1.90467,0.00045,387.054,0.187,0.7061,0.0077,140.001,45.000,31973.54621,1.91819,390.406,39.252,45.069,45.000,0.00,0.09,-272.79,-272.83,-10,537,-951,22.6,20.0,-1.5,22.8,20.2,-1.2,5.73,1.96,1.4,29.3
2016-08-17 01:32:00,0.0,1.90484,0.00034,386.946,0.164,0.7075,0.0066,140.001,45.000,31973.30353,1.91839,390.318,39.254,45.069,45.000,0.00,0.09,-272.78,-272.84,-12,537,-951,22.6,20.0,-1.5,22.8,20.1,-1.3,5.73,1.67,1.4,29.3
2016-08-17 01:33:00,0.0,1.90477,0.00044,386.825,0.117,0.7125,0.0041,139.999,45.000,31971.46414,1.91842,390.216,39.267,45.069,45.000,0.00,0.09,-272.78,-272.84,-11,537,-951,22.6,20.2,-1.3,22.9,20.3,-1.1,5.73,1.90,1.4,29.3
2016-08-17 01:34:00,0.0,1.90449,0.00045,386.691,0.185,0.7190,0.0066,140.000,45.000,31972.98429,1.91831,390.107,39.301,45.069,45.000,0.00,0.09,-272.77,-272.83,-12,537,-951,22.7,20.3,-1.2,22.9,20.4,-1.0,5.73,1.74,1.4,29.3
2016-08-17 01:35:00,0.0,1.90424,0.00026,386.991,0.082,0.7082,0.0033,139.999,45.000,31975.47858,1.91779,390.356,39.312,45.069,45.000,0.00,0.09,-272.77,-272.84,-11,537,-951,22.7,20.0,-1.4,22.8,20.3,-1.1,5.73,1.82,1.4,29.3
2016-08-17 01:36:00,0.0,1.90465,0.00040,387.269,0.032,0.6924,0.0036,140.000,45.000,31975.87908,1.91791,390.564,39.311,45.068,45.000,0.00,0.09,-272.79,-272.84,-12,537,-951,22.7,19.6,-1.7,22.9,19.9,-1.4,5.73,1.83,1.4,29.3
2016-08-17 01:37:00,0.0,1.90455,0.00039,387.145,0.073,0.6969,0.0032,140.002,45.000,31976.85153,1.91793,390.462,39.313,45.069,45.000,0.00,0.09,-272.77,-272.84,-11,537,-951,22.7,19.7,-1.6,22.9,19.8,-1.4,5.73,1.72,1.4,29.3
2016-08-17 01:38:00,0.0,1.90438,0.00034,386.762,0.268,0.7090,0.0099,140.001,45.000,31977.60652,1.91793,390.140,39.313,45.069,45.000,0.00,0.09,-272.78,-272.83,-12,537,-951,22.7,20.1,-1.4,22.9,20.0,-1.3,5.73,1.93,1.4,29.3
2016-08-17 01:39:00,0.0,1.90437,0.00052,386.635,0.207,0.7249,0.0048,140.002,45.000,31977.70928,1.91826,390.079,39.313,45.069,45.000,0.00,0.09,-272.78,-272.85,-11,537,-951,22.7,20.5,-1.1,22.9,20.5,-0.9,5.73,1.65,1.4,29.3
2016-08-17 01:40:00,0.0,1.90465,0.00041,386.941,0.056,0.7154,0.0040,140.001,45.000,31976.81494,1.91834,390.346,39.313,45.069,45.000,0.00,0.09,-272.78,-272.84,-12,537,-951,22.8,20.2,-1.2,22.9,20.4,-1.0,5.73,1.97,1.4,29.4
2016-08-17 01:41:00,0.0,1.90439,0.00037,386.579,0.204,0.7268,0.0066,140.002,45.000,31978.96045,1.91834,390.046,39.314,45.069,45.000,0.00,0.09,-272.77,-272.84,-11,537,-951,22.8,20.5,-1.0,22.9,20.5,-0.9,5.73,1.64,1.4,29.3
2016-08-17 01:42:00,0.0,1.90409,0.00042,386.395,0.145,0.7390,0.0058,139.999,45.000,31977.98152,1.91828,389.902,39.311,45.069,45.000,0.00,0.09,-272.78,-272.84,-12,537,-951,22.8,20.9,-0.8,22.9,20.9,-0.7,5.73,1.96,1.5,29.3
2016-08-17 01:43:00,0.0,1.90462,0.00046,386.529,0.223,0.7276,0.0119,140.001,45.000,31979.23537,1.91854,389.999,39.261,45.069,45.000,0.00,0.09,-272.79,-272.84,-11,537,-951,22.8,20.6,-1.0,23.0,20.8,-0.7,5.73,1.70,1.4,29.4
2016-08-17 01:44:00,0.0,1.90430,0.00039,386.408,0.335,0.7368,0.0102,140.001,45.000,31978.96007,1.91843,389.900,39.250,45.069,45.001,0.00,0.09,-272.77,-272.84,-12,537,-951,22.8,20.7,-0.9,23.0,20.8,-0.7,5.73,1.88,1.5,29.4
2016-08-17 01:45:00,0.0,1.90455,0.00036,386.847,0.100,0.7212,0.0021,140.002,45.000,31979.41411,1.91838,390.278,39.249,45.069,45.001,0.00,0.09,-272.78,-272.84,-11,537,-951,22.8,20.3,-1.2,22.9,20.5,-0.9,5.73,1.80,1.5,29.4